GW3114 Weather Reports


Display with metric or nautical units.
time (UTC)temp
F
wind
direction
speed
MPH
gust
MPH
rain 1hr
in
rain 24hr
in
rain mn
in
humidity
%
barometer
mb
20260503032821 47 225 1.0 1.0 0.00 0.00 0.00 61 1014.6
20260503031816 48 297 3.0 3.0 0.00 0.00 0.00 60 1014.7
20260503030816 49 277 2.0 2.0 0.00 0.00 0.00 58 1014.5
20260503025815 49 219 4.0 6.0 0.00 0.00 0.00 58 1014.6
20260503024815 49 256 2.0 2.0 0.00 0.00 0.00 58 1014.4
20260503023814 50 220 2.0 2.0 0.00 0.00 0.00 56 1014.5
20260503022814 50 277 3.0 4.0 0.00 0.00 0.00 57 1014.5
20260503021810 50 290 1.0 2.0 0.00 0.00 0.00 59 1014.2
20260503020810 50 222 0.0 0.0 0.00 0.00 0.00 59 1014.3
20260503015810 50 214 0.0 0.0 0.00 0.00 0.00 60 1014.2
20260503014809 51 224 0.0 1.0 0.00 0.00 0.00 58 1014.0
20260503013804 51 221 0.0 0.0 0.00 0.00 0.00 58 1014.0
20260503012758 51 229 1.0 1.0 0.00 0.00 0.00 59 1013.9
20260503011758 51 241 1.0 2.0 0.00 0.00 0.00 59 1013.7
20260503010757 51 219 0.0 1.0 0.00 0.00 0.00 59 1013.6
20260503005757 51 273 3.0 4.0 0.00 0.00 0.00 58 1013.4
20260503004756 51 224 0.0 0.0 0.00 0.00 0.00 58 1013.1
20260503003751 52 216 0.0 1.0 0.00 0.00 0.00 56 1013.2
20260503002751 52 254 0.0 1.0 0.00 0.00 0.00 55 1013.2
20260503001750 52 281 1.0 1.0 0.00 0.00 0.00 53 1012.9
20260503000751 53 305 0.0 1.0 0.00 0.00 0.00 53 1012.9
20260502235745 53 79 4.0 4.0 0.00 0.00 0.00 52 1012.6
20260502234744 53 127 2.0 3.0 0.00 0.00 0.00 51 1012.7
20260502233743 54 215 1.0 1.0 0.00 0.00 0.00 52 1012.3
20260502232742 54 287 3.0 4.0 0.00 0.00 0.00 50 1012.4
20260502231742 55 343 3.0 4.0 0.00 0.00 0.00 48 1012.4
20260502230738 56 313 2.0 3.0 0.00 0.00 0.00 49 1012.2
20260502225738 56 26 1.0 1.0 0.00 0.00 0.00 48 1012.1
20260502224737 57 205 1.0 2.0 0.00 0.00 0.00 47 1012.1
20260502223737 57 151 1.0 1.0 0.00 0.00 0.00 47 1012.1
20260502222733 56 293 1.0 2.0 0.00 0.00 0.00 47 1012.1
20260502221731 56 197 2.0 3.0 0.00 0.00 0.00 49 1012.0
20260502220730 57 36 2.0 2.0 0.00 0.00 0.00 46 1012.2
20260502215729 57 285 2.0 2.0 0.00 0.00 0.00 46 1012.4
20260502214724 58 273 4.0 6.0 0.00 0.00 0.00 46 1012.2
20260502213724 58 256 2.0 2.0 0.00 0.00 0.00 47 1012.1
20260502212720 59 231 2.0 2.0 0.00 0.00 0.00 46 1012.0
20260502211719 59 245 3.0 4.0 0.00 0.00 0.00 44 1012.1
20260502210719 60 258 3.0 4.0 0.00 0.00 0.00 44 1012.2
20260502205714 59 2 3.0 4.0 0.00 0.00 0.00 46 1012.1
20260502204713 59 236 0.0 1.0 0.00 0.00 0.00 48 1012.1
20260502203708 59 338 3.0 4.0 0.00 0.00 0.00 45 1012.2
20260502202705 60 258 1.0 2.0 0.00 0.00 0.00 42 1012.2
20260502201701 60 243 2.0 2.0 0.00 0.00 0.00 42 1012.0
20260502200659 59 224 1.0 2.0 0.00 0.00 0.00 44 1012.1
20260502195654 63 312 3.0 4.0 0.00 0.00 0.00 42 1012.1
20260502194653 61 230 3.0 3.0 0.00 0.00 0.00 41 1012.2
20260502193652 62 242 2.0 2.0 0.00 0.00 0.00 42 1012.4
20260502192650 62 276 3.0 3.0 0.00 0.00 0.00 42 1012.5
20260502191645 61 236 3.0 4.0 0.00 0.00 0.00 42 1012.7
20260502190646 60 8 1.0 2.0 0.00 0.00 0.00 45 1013.0
20260502185643 60 248 4.0 7.0 0.00 0.00 0.00 48 1013.2
20260502184643 59 257 3.0 4.0 0.00 0.00 0.00 47 1013.2
20260502183640 58 283 2.0 3.0 0.00 0.00 0.00 47 1013.3
20260502182636 58 300 2.0 2.0 0.00 0.00 0.00 46 1013.4
20260502181635 59 130 3.0 4.0 0.00 0.00 0.00 46 1013.8
20260502180631 59 220 5.0 6.0 0.00 0.00 0.00 47 1013.7
20260502163620 58 288 2.0 4.0 0.00 0.00 0.00 47 1014.4
20260502162619 58 301 2.0 3.0 0.00 0.00 0.00 50 1014.5
20260502161620 58 141 5.0 8.0 0.00 0.00 0.00 52 1014.6
20260502160615 57 228 3.0 3.0 0.00 0.00 0.00 54 1014.6
20260502151542 55 209 3.0 4.0 0.00 0.00 0.00 53 1015.0
20260502150537 57 296 4.0 6.0 0.00 0.00 0.00 54 1014.9
20260502130519 50 233 3.0 7.0 0.00 0.00 0.00 66 1014.9
20260502123514 48 294 1.0 2.0 0.00 0.00 0.00 68 1014.7
20260502122513 48 285 6.0 8.0 0.00 0.00 0.00 68 1014.7
20260502121513 48 259 2.0 3.0 0.00 0.00 0.00 69 1015.0
20260502120513 48 315 2.0 3.0 0.00 0.00 0.00 69 1014.8
20260502115508 47 180 0.0 0.0 0.00 0.00 0.00 70 1014.9
20260502114506 47 234 5.0 7.0 0.00 0.00 0.00 71 1014.8
20260502113506 47 291 2.0 4.0 0.00 0.00 0.00 71 1014.6
20260502112502 46 59 2.0 2.0 0.00 0.00 0.00 73 1014.9
20260502111502 46 291 1.0 2.0 0.00 0.00 0.00 74 1014.9
20260502110457 46 239 2.0 3.0 0.00 0.00 0.00 73 1014.7
20260502105452 46 219 1.0 1.0 0.00 0.00 0.00 74 1014.8
20260502104453 46 196 3.0 4.0 0.00 0.00 0.00 73 1014.4
20260502103447 46 1 3.0 3.0 0.00 0.00 0.00 73 1014.3
20260502102447 46 245 2.0 2.0 0.00 0.00 0.00 73 1014.3
20260502101442 46 352 7.0 9.0 0.00 0.00 0.00 72 1014.1
20260502100439 47 224 5.0 7.0 0.00 0.00 0.00 72 1014.0
20260502091425 48 213 0.0 0.0 0.00 0.00 0.00 70 1013.8
20260502090425 49 248 3.0 4.0 0.00 0.00 0.00 69 1013.6
20260502071354 53 143 1.0 1.0 0.00 0.00 0.00 72 1012.9
20260502070350 53 218 0.0 0.0 0.00 0.00 0.00 72 1013.0
20260502065346 53 219 0.0 0.0 0.00 0.00 0.00 71 1013.0
20260502064342 53 220 0.0 0.0 0.00 0.00 0.00 71 1013.0
20260502063342 53 252 1.0 1.0 0.00 0.00 0.00 71 1012.9
20260502062337 53 223 0.0 0.0 0.00 0.00 0.00 69 1013.0
20260502061333 53 210 1.0 1.0 0.00 0.00 0.00 69 1013.2
20260502060329 53 223 1.0 2.0 0.00 0.00 0.00 69 1013.1
20260502055325 53 260 1.0 1.0 0.00 0.00 0.00 69 1013.2
20260502054322 54 211 0.0 0.0 0.00 0.00 0.00 69 1013.3
20260502053322 54 8 2.0 2.0 0.00 0.00 0.00 69 1013.1
20260502052318 54 252 0.0 1.0 0.00 0.00 0.00 69 1013.4
20260502051314 54 331 1.0 1.0 0.00 0.00 0.00 68 1013.4
20260502050312 54 272 1.0 1.0 0.00 0.00 0.00 69 1013.3
20260502045311 54 222 1.0 1.0 0.00 0.00 0.00 68 1013.3
20260502044310 55 222 0.0 0.0 0.00 0.00 0.00 67 1013.3
20260502043305 55 227 1.0 2.0 0.00 0.00 0.00 67 1013.4
20260502042305 55 215 0.0 0.0 0.00 0.00 0.00 68 1013.1
20260502041257 55 220 0.0 0.0 0.00 0.00 0.00 67 1012.9
20260502040256 55 213 0.0 1.0 0.00 0.00 0.00 68 1012.6
20260502035255 55 239 2.0 2.0 0.00 0.00 0.00 67 1012.7
20260502034251 56 216 2.0 2.0 0.00 0.00 0.00 68 1012.6